Home   Weather   Götzis   Past weeks

Flag for Austria Past Weather in Götzis, Vorarlberg, Austria — Yesterday and Last 2 Weeks

Now
56 °F

Cool.


Feels Like: 56 °F
Forecast: 50 / 72 °F
Wind: 1 mph from Southeast

Location: Feldkirch

Current Time: Jul 26, 2017 at 3:00:42 pm

Latest Report: Jul 26, 2017 at 2:00 pm


Visibility: N/A

Pressure: 29.92 "Hg

Humidity: 92%

Dew Point: 54 °F

Location of GötzisLocation

Past Weather in Götzis — Graph

°F

Götzis Temperature Yesterday

Maximum temperature yesterday: 58 °F (at 5:00 pm)
Minimum temperature yesterday: 55 °F (at 11:00 pm)
Average temperature yesterday: 56 °F

High & Low Weather Summary for the Past Weeks

 TemperatureHumidityPressure
High87 °F (Jul 19, 4:00 pm)98% (Jul 23, 7:00 am)30.28 "Hg (Jul 23, 7:00 am)
Low52 °F (Jul 16, 5:00 am)41% (Jul 17, 6:00 pm)29.74 "Hg (Jul 21, 6:00 pm)
Average66 °F76%29.99 "Hg
* Reported Jul 11 1:00 pm — Jul 26 1:00 pm, Götzis. Weather by CustomWeather, © 2017

Note: Actual official high and low records may vary slightly from our data, if they occured in-between our weather recording intervals... More about our weather records

Advertising

Götzis Weather History for the Previous 24 Hours

Scroll right to see more
 ConditionsComfort  
Time TempWeatherWind HumidityBarometerVisibility
1:00 pm
Wed, Jul 26
56 °FFog.1 mph89%29.91 "HgN/A
12:00 pm55 °FFog.2 mph92%29.90 "HgN/A
11:00 am54 °FLow clouds.2 mph94%29.91 "Hg3 mi
10:00 am54 °FFog.1 mph96%29.90 "HgN/A
9:00 am54 °FFog.1 mph96%29.89 "HgN/A
8:00 am54 °FCool.1 mph97%29.88 "HgN/A
7:00 amN/APassing clouds.3 mphN/AN/A2 mi
6:00 am53 °FCool.1 mph98%29.86 "HgN/A
5:00 am53 °FCool.No wind97%29.86 "HgN/A
4:00 am54 °FSprinkles. Overcast.1 mph96%29.85 "HgN/A
3:00 am54 °FFog.1 mph96%29.86 "HgN/A
2:00 am54 °FCool.1 mph95%29.87 "HgN/A
1:00 am54 °FCool.No wind96%29.87 "HgN/A
12:00 am55 °FCool.1 mph94%29.89 "HgN/A
11:00 pm
Tue, Jul 25
55 °FCool.2 mph95%29.90 "HgN/A
10:00 pm56 °FFog.2 mph88%29.89 "HgN/A
9:00 pm56 °FCool.1 mph85%29.88 "HgN/A
8:00 pm56 °FCool.1 mph88%29.89 "HgN/A
7:00 pm57 °FCool.1 mph84%29.88 "HgN/A
6:00 pm57 °FCool.1 mph86%29.88 "HgN/A
5:00 pm58 °FCool.1 mph83%29.89 "HgN/A
4:00 pm57 °FSprinkles. Cloudy.2 mph86%29.89 "HgN/A
3:00 pm56 °FSprinkles. Cloudy.2 mph81%29.90 "HgN/A
Weather by CustomWeather, © 2017

See weather overviewHow to use our weather pages